Tracking 23645 objects as of 21-Sep-2021
HD Live streaming from Space Station
objects crossing your sky now

STARLINK-1215

Track STARLINK-1215 now!
10-day predictions
STARLINK-1215 is classified as:


NORAD ID: 45225
Int'l Code: 2020-012AZ
Perigee: 552.8 km
Apogee: 556.0 km
Inclination: 53.1 °
Period: 95.6 minutes
Semi major axis: 6925 km
RCS: Unknown
Launch date: February 17, 2020
Source: United States (US)
Launch site: AIR FORCE EASTERN TEST RANGE (AFETR)
aabbcc
Your satellite tracking list
Your tracking list is empty




NASA's NSSDC Master Catalog

Two Line Element Set (TLE):
1 45225U 20012AZ  21264.02882087  .00000562  00000-0  56645-4 0  9996
2 45225  53.0536 126.9354 0002290  73.4487 286.6753 15.06395417 89575
Source of the keplerian elements: AFSPC